• MPC Preparation (Info)

  • MPEC 2023-F94 : 2023 FV2

    The following Minor Planet Electronic Circular may be linked-to from your own Web pages, but must not otherwise be redistributed electronically.

    A form allowing access to any MPEC is at the bottom of this page.


    Read MPEC 2023-F93 Read MPEC 2023-F95


    M.P.E.C. 2023-F94                                Issued 2023 March 22, 01:16 UT
    
         The Minor Planet Electronic Circulars contain information on unusual
             minor planets, routine data on comets and natural satellites,
             and occasional editorial announcements.  They are published
        on behalf of Division F of the International Astronomical Union by the
              Minor Planet Center, Smithsonian Astrophysical Observatory,
                              Cambridge, MA 02138, U.S.A.
    			  
                 Prepared using the Tamkin Foundation Computer Network
    
                                  MPC@CFA.HARVARD.EDU
                URL https://www.minorplanetcenter.net/    ISSN 1523-6714
    
                                    2023 FV2                                 
    
    
    Observations:
         K23F02V* C2023 03 19.38281511 23 59.089-10 18 22.53         21.06wUEF094F52
         K23F02V  C2023 03 19.40567811 23 55.471-10 18 46.57         21.12wUEF094F52
         K23F02V  C2023 03 19.41712011 23 53.649-10 18 58.64         21.09wUEF094F52
         K23F02V  C2023 03 19.54018911 23 34.100-10 21 07.33         20.83GVEF094F52
         K23F02V  C2023 03 19.54082011 23 33.997-10 21 07.96         21.02GVEF094F52
         K23F02V  C2023 03 19.54209911 23 33.793-10 21 09.31         21.04GVEF094F52
         K23F02V |C2023 03 20.08115 11 22 11.56 -10 30 24.4          21.3 VuEF094807
         K23F02V |C2023 03 20.08883 11 22 10.33 -10 30 33.3          21.5 VuEF094807
         K23F02V |C2023 03 20.09652 11 22 09.06 -10 30 41.4          21.2 VuEF094807
         K23F02V KC2023 03 20.18022411 21 55.87 -10 32 25.2          21.4 GVEF094H21
         K23F02V KC2023 03 20.18581611 21 54.97 -10 32 30.8          21.3 GVEF094H21
         K23F02V KC2023 03 20.18898511 21 54.48 -10 32 34.3          21.5 GVEF094H21
         K23F02V |C2023 03 21.12291 11 19 27.77 -10 48 43.6          20.9 VuEF094807
         K23F02V |C2023 03 21.13060 11 19 26.53 -10 48 52.9          21.1 VuEF094807
         K23F02V |C2023 03 21.13829 11 19 25.31 -10 49 01.1          21.1 VuEF094807
         K23F02V 1C2023 03 21.99347 11 17 08.35 -11 04 23.7          21.2 VXEF094033
         K23F02V 1C2023 03 21.99560 11 17 08.01 -11 04 25.8          21.1 VXEF094033
         K23F02V 1C2023 03 21.99774 11 17 07.61 -11 04 28.4          20.8 VXEF094033
    
    Observer details:
    033 Karl Schwarzschild Observatory, Tautenburg.  Observers S. Melnikov, C.
        Hoegner, F. Ludwig, B. Stecklum.  Measurer B. Stecklum.  1.34-m f/3
        Schmidt + CCD.
    807 Cerro Tololo Observatory, La Serena.  Observers T. Linder, R. Holmes, L.
        Horn.  0.61-m f/6.5 Dall-Kirkham Astrograph + CCD.
    F52 Pan-STARRS 2, Haleakala.  Observers J. Bulger, T. Lowe, A. Schultz, I.
        Smith, K. Chambers, T. Dukes.  Measurers K. Chambers, S. Chastel, T. de
        Boer, J. Fairlamb, H. Gao, M. Huber, C.-C. Lin, E. Magnier, Y.
        Ramanjooloo, R. Wainscoat, R. Weryk.  1.8-m Ritchey-Chretien + CCD.
    H21 Astronomical Research Observatory, Westfield.  Observer R. Holmes.
        Measurers T. Linder, R. Holmes, L. Horn.  0.76-m f/3.0 astrograph + CCD.
    
    Orbital elements:
    2023 FV2                                                 Earth MOID = 0.1976 AU
    Epoch 2023 Feb. 25.0 TT = JDT 2460000.5                 Veres                   
    M 324.63026              (2000.0)            P               Q                  
    n   0.27218249     Peri.  287.21981     +0.04246079     +0.99418281             
    a   2.3581020      Node   344.19404     -0.72148183     -0.03802217             
    e   0.5798129      Incl.   21.30913     -0.69113027     +0.10077128             
    P   3.62           H   20.62          G   0.15           U   9                  
    Residuals in seconds of arc
    230319 F52  0.1-  0.0     230320 807  0.2+  0.4+    230321 807 (0.5-  1.2+)
    230319 F52  0.1+  0.1+    230320 807  0.2+  0.3-    230321 807  0.3-  0.0
    230319 F52  0.1+  0.0     230320 807  0.4-  0.3-    230321 807  0.3+  0.0
    230319 F52  0.2-  0.0     230320 H21  0.0   0.1-    230321 033  0.0   0.1+
    230319 F52  0.3-  0.0     230320 H21  0.1-  0.2+    230321 033  0.1+  0.3+
    230319 F52  0.3-  0.0     230320 H21  0.2+  0.0     230321 033  0.5-  0.1-
    
    Ephemeris:
    2023 FV2                 a,e,i = 2.36, 0.58, 21                  q = 0.9908
    Date    TT    R. A. (2000) Decl.     Delta      r    Elong.  Phase     V
    2023 02 20    12 10 42.2 -03 14 22   0.9229  1.8327   147.0    17.1    22.7
    ...
    2023 03 07    11 51 04.3 -06 50 46   0.7411  1.7157   163.5     9.4    21.8
    ...
    2023 03 15    11 34 39.2 -09 02 26   0.6662  1.6524   168.5     6.9    21.3
    ...
    2023 03 21    11 19 47.1 -10 46 39   0.6212  1.6047   165.4     9.0    21.2
    2023 03 22    11 17 07.6 -11 04 17   0.6147  1.5967   164.4     9.7    21.2
    2023 03 23    11 14 25.5 -11 21 59   0.6084  1.5887   163.2    10.4    21.2
    ...
    2023 03 29    10 57 28.6 -13 08 25   0.5763  1.5409   155.4    15.7    21.2
    ...
    2023 04 06    10 34 00.8 -15 27 44   0.5475  1.4773   143.6    23.7    21.3
    ...
    2023 04 21    09 53 50.0 -19 29 27   0.5263  1.3598   122.1    38.7    21.4
    
    M. P. C. Staff               (C) Copyright 2023 MPC           M.P.E.C. 2023-F94
    


    Read MPEC 2023-F93 Read MPEC 2023-F95


    MPEC number:

    Enter an MPEC number in one of the following forms:

    • 1997-B01 (the full form)
    • J97B01 (the packed version of the full form)
    • B01 (the abbreviated form)